Simultaneous Nadir Overpasses (SNOs) Predictions

Prediction of SNOs between GOES-16 and NPP Satellite Orbit:

Table of predicted SNOs for the next 14.0 days since TLE Epoch: 12/14/2024
Index Date Time (GOES-16) GOES-16 Lat,Lon NPP Lat,Lon Distance(km) Time Diff (sec)
1 12/14/2024 18:23:19 -0.00, -75.19 0.22, -74.29 103.63 80
2 12/16/2024 06:45:08 0.01, -75.18 1.01, -79.55 498.84 80
3 12/17/2024 06:23:46 0.01, -75.18 -0.02, -75.03 17.02 80
4 12/19/2024 18:27:03 -0.01, -75.21 -0.15, -75.83 70.25 80
5 12/20/2024 18:11:00 -0.01, -75.22 0.89, -71.31 446.65 80
6 12/22/2024 06:32:50 0.00, -75.23 0.32, -76.57 153.62 80
7 12/23/2024 06:11:27 0.00, -75.24 -0.72, -72.05 363.54 80
8 12/24/2024 18:33:26 -0.00, -75.27 -0.46, -77.37 238.67 80
9 12/25/2024 18:17:23 0.00, -75.29 0.52, -72.84 278.97 80
10 12/27/2024 06:39:13 -0.01, -75.31 0.63, -78.12 320.18 80
